Regional Weather Roundup
Issued by NWS

Home | Current Version | Previous Version | Graphics & Text | Print | Product List | Glossary Off
Versions: 1 2 3 4 5 6 7 8 9 10 11 12 13 14 15 16 17 18 19 20 21 22 23 24 25 26 27 28 29 30 31 32 33 34 35 36 37 38 39 40 41 42 43 44 45 46 47 48 49 50

000
ASUS43 KMKX 252159
RWRWI

WISCONSIN REGIONAL WEATHER ROUNDUP
NATIONAL WEATHER SERVICE MILWAUKEE/SULLIVAN WI
400 PM CST SUN FEB 25 2018

NOTE: "FAIR" INDICATES FEW OR NO CLOUDS BELOW 12,000 FEET WITH NO
SIGNIFICANT WEATHER AND/OR OBSTRUCTIONS TO VISIBILITY.

WIZ001-002-006>008-014>016-023>028-252300-
NORTHWEST WISCONSIN

CITY           SKY/WX    TMP DP  RH WIND       PRES   REMARKS
SUPERIOR ARPT  PTSUNNY   29  17  60 SW20      29.68R WCI  17
ASHLAND        CLOUDY    28  18  66 SW20G26   29.66R WCI  15
HAYWARD        FAIR      27  17  66 SW10G23   29.70R WCI  17
SIREN          CLOUDY    27  18  69 W13G24    29.75R WCI  17
CUMBERLAND     PTSUNNY   27  16  63 W21       29.74R WCI  13
RICE LAKE      FAIR      27  17  67 W13G20    29.78R WCI  16
CHETEK         FAIR      26  16  65 W14G21    29.77R WCI  15
LADYSMITH      FAIR      28  17  63 SW15G22   29.74R WCI  17
EAU CLAIRE     NOT AVBL
MENOMONIE      CLOUDY    29  20  69 SW16      29.82R WCI  17
NEW RICHMOND   CLOUDY    27  19  71 W18       29.80R WCI  14
OSCEOLA        CLOUDY    28  20  74 SW14      29.83R WCI  17
$$

WIZ003>005-009-010-017-018-252300-
NORTH CENTRAL WISCONSIN

CITY           SKY/WX    TMP DP  RH WIND       PRES   REMARKS
MANITOWISH WTR CLOUDY    23  17  79 W18G26    29.62R HAZE    WCI   9
ARBOR VITAE    CLOUDY    25  18  76 W12G25    29.63R WCI  14
WOODRUFF       CLOUDY    25  18  76 W12G25    29.63R WCI  14
RHINELANDER    MIX PCPN  26  18  71 SW20G30   29.66R WCI  12
EAGLE RIVER    CLOUDY    24  16  72 W14G25    29.62R WCI  12
LAND O LAKES   CLOUDY    25  18  74 W9G18     29.61R WCI  15
PHILLIPS       FAIR      26  16  65 SW16      29.67R WCI  14
TOMAHAWK       PTSUNNY   28  17  64 SW8G23    29.68R WCI  19
MEDFORD        FAIR      25  15  65 W16G23    29.72R WCI  12
MERRILL        FAIR      29  17  61 W21G30    29.73R WCI  15
$$

WIZ029-030-035-036-043>047-252300-
CENTRAL WISCONSIN

CITY           SKY/WX    TMP DP  RH WIND       PRES   REMARKS
WAUSAU         FAIR      29  17  61 W18G25    29.73R WCI  16
MOSINEE        MOSUNNY   28  19  69 SW21G29   29.76R WCI  15
MARSHFIELD     FAIR      29  17  61 W20G29    29.76R WCI  16
STEVENS POINT  FAIR      28  20  70 W14G23    29.77R WCI  17
WAUPACA        FAIR      36  24  61 W15G24    29.78R WCI  27
WAUTOMA        FAIR      36  23  59 SW15G28   29.81R WCI  27
WISC RAPIDS    FAIR      32  22  66 MISG      29.80R
CAMP DOUGLAS   FAIR      34  24  67 W21       29.83R WCI  22
$$

WIZ011>013-019>022-031-037>040-048>050-252300-
NORTHEAST WISCONSIN

CITY           SKY/WX    TMP DP  RH WIND       PRES   REMARKS
ANTIGO         FAIR      26  17  69 W21G29    29.69R WCI  12
SHAWANO        FAIR      34  22  61 W14G25    29.75R WCI  25
OCONTO         PTSUNNY   33  22  63 W24G33    29.73R WCI  20
STURGEON BAY   FAIR      34  22  61 SW24G31   29.72R WCI  21
GREEN BAY      FAIR      37  22  54 W18G26    29.76R WCI  27
MANITOWOC      FAIR      38  22  52 SW23G30   29.78R WCI  27
APPLETON       MOSUNNY   36  19  51 W16G30    29.76R WCI  26
CLINTONVILLE   PTSUNNY   33  22  65 W16G22    29.77R WCI  22
OSHKOSH        FAIR      38  22  52 SW12G25   29.79R WCI  30
$$

WIZ032>034-041-042-053>061-252300-
SOUTHWEST WISCONSIN

CITY           SKY/WX    TMP DP  RH WIND       PRES   REMARKS
LA CROSSE      FAIR      33  23  66 SW10G21   29.91R WCI  25
SPARTA         FAIR      33  23  67 SW13G25   29.86R WCI  24
VIROQUA        FAIR      32  26  78 SW18G28   29.87R WCI  20
BOSCOBEL       FAIR      38  23  55 W16G28    29.94R WCI  29
PRAIRIE DU CHI FAIR      36  22  58 SW15      29.93R WCI  27
PLATTEVILLE    FAIR      38  29  70 SW24      29.94R WCI  26
$$

WIZ056-057-062-063-064-067-068-252300-
SOUTH CENTRAL WISCONSIN

CITY           SKY/WX    TMP DP  RH WIND       PRES   REMARKS
REEDSBURG      FAIR      37  23  58 SW15      29.86R WCI  27
BARABOO/DELLS  FAIR      37  22  56 SW20G31   29.84R WCI  26
LONE ROCK      NOT AVBL
MINERAL POINT  FAIR      37  28  70 SW15G22   29.90R WCI  28
MADISON        FAIR      38  23  55 SW13G23   29.90R WCI  30
MIDDLETON      FAIR      39  24  54 SW18G26   29.88R WCI  30
WATERTOWN      FAIR      38  23  55 SW16G30   29.87R WCI  29
MONROE         FAIR      39  25  56 W26G35    29.91R WCI  28
JANESVILLE     MOSUNNY   39  25  56 W22G29    29.91R WCI  29
$$

WIZ051-052-058>065-066-070>072-252300-
SOUTHEAST WISCONSIN

CITY           SKY/WX    TMP DP  RH WIND       PRES   REMARKS
MILWAUKEE      FAIR      42  22  44 W23G36    29.89R
WAUKESHA       SUNNY     37  19  48 SW17G29   29.89R WCI  28
MILWAUKEE/TIMM SUNNY     39  19  45 SW23G33   29.87R WCI  29
RACINE         FAIR      42  22  44 W25G39    29.91R
BURLINGTON     FAIR      40  27  59 SW21G32   29.91R WCI  30
KENOSHA        FAIR      42  24  49 W29G38    29.91R
FOND DU LAC    FAIR      38  22  52 SW18G29   29.82R WCI  28
SHEBOYGAN      FAIR      38  24  57 SW28G36   29.80R WCI  26
WEST BEND      FAIR      37  23  56 SW14G25   29.83R WCI  29
JUNEAU         FAIR      37  24  60 SW22      29.86R WCI  26
$$

LSZ147-162-252300-
LAKE SUPERIOR

STATION/POSITION TIME  TEMP    WIND        PRES    WAVE
                       AIR SEA DIR/SP/G            HT/PER
                 (UTC) (F)     (DEG/KT/KT) (MB)    (FT/S)
DEVILS ISLAND    2100   28     240/ 32/ 38 1001.9R
SAXON HARBOR     2130   29     230/ 12/ 20 1003.4R
$$

LMZ867-665-643>646-252300-
LAKE MICHIGAN

STATION/POSITION TIME  TEMP    WIND        PRES    WAVE
                       AIR SEA DIR/SP/G            HT/PER
                 (UTC) (F)     (DEG/KT/KT) (MB)    (FT/S)
NORTHPORT PIER   2140   32                 1005.8R
KEWAUNEE LAKESHO 2130   37     250/ 18/ 25 1006.7R
SHEBOYGAN LAKESH 2100   38     240/ 20/ 27 1009.1R
PORT WASHINGTON  2140   42     240/ 15/ 28 1011.5R
KENOSHA   LAKESH 2100   43     240/ 13/ 24 1012.9
$$

TC  - TEMPERATURE IN CELSIUS
VSB - VISIBILITY IN STATUTE MILES
WCI - WIND CHILL INDEX
HX  - HEAT INDEX




USA.gov is the U.S. government's official web portal to all federal, state and local government web resources and services.